TimePDT,TemperatureF,Dew PointF,Humidity,Sea Level PressureIn,VisibilityMPH,Wind Direction,Wind SpeedMPH,Gust SpeedMPH,PrecipitationIn,Events,Conditions,WindDirDegrees,DateUTC
12:58 AM,58.8,47.3,66,29.97,10.0,WSW,5.8,-,N/A,,Clear,250,2013-08-27 07:58:00
1:58 AM,57.4,46.8,68,29.97,10.0,Calm,Calm,-,N/A,,Clear,0,2013-08-27 08:58:00
2:58 AM,59.0,48.4,68,29.96,10.0,SE,1.2,-,N/A,,Clear,130,2013-08-27 09:58:00
3:58 AM,56.5,47.3,71,29.96,10.0,Calm,Calm,-,N/A,,Clear,0,2013-08-27 10:58:00
4:58 AM,53.4,49.6,87,29.97,10.0,NE,2.3,-,N/A,,Clear,40,2013-08-27 11:58:00
5:58 AM,52.2,47.5,84,29.97,10.0,East,4.6,-,N/A,,Clear,80,2013-08-27 12:58:00
6:58 AM,54.5,47.8,78,29.99,10.0,ENE,2.3,-,N/A,,Clear,60,2013-08-27 13:58:00
7:58 AM,61.5,49.6,65,29.99,10.0,Calm,Calm,-,N/A,,Clear,0,2013-08-27 14:58:00
8:58 AM,66.7,51.4,58,30.00,10.0,ENE,4.6,-,N/A,,Clear,60,2013-08-27 15:58:00
9:58 AM,70.5,49.3,47,29.99,10.0,Calm,Calm,-,N/A,,Clear,0,2013-08-27 16:58:00
10:58 AM,73.2,49.8,44,29.97,10.0,ENE,4.6,-,N/A,,Clear,70,2013-08-27 17:58:00
11:04 AM,73.4,50.0,44,30.00,10.0,Variable,3.5,-,N/A,,Light Drizzle,0,2013-08-27 18:04:00
11:10 AM,73.4,50.0,44,30.00,10.0,Variable,2.3,-,N/A,,Clear,0,2013-08-27 18:10:00
11:58 AM,75.4,49.3,40,29.96,10.0,Variable,2.3,-,0.00,,Clear,0,2013-08-27 18:58:00
12:58 PM,77.0,48.9,37,29.94,10.0,West,5.8,-,N/A,,Clear,270,2013-08-27 19:58:00
1:58 PM,78.4,48.2,34,29.91,10.0,Variable,4.6,-,N/A,,Clear,0,2013-08-27 20:58:00
2:58 PM,79.9,48.6,33,29.89,10.0,Variable,3.5,-,N/A,,Clear,0,2013-08-27 21:58:00
3:58 PM,79.0,47.7,33,29.87,10.0,Variable,5.8,-,N/A,,Partly Cloudy,0,2013-08-27 22:58:00
4:58 PM,81.1,47.8,31,29.86,10.0,West,4.6,-,N/A,,Clear,260,2013-08-27 23:58:00
5:58 PM,80.8,46.9,30,29.86,10.0,ENE,3.5,-,N/A,,Clear,60,2013-08-28 00:58:00
6:58 PM,79.3,46.9,32,29.84,10.0,North,6.9,-,N/A,,Clear,10,2013-08-28 01:58:00
7:58 PM,73.9,47.8,40,29.83,10.0,North,8.1,-,N/A,,Clear,10,2013-08-28 02:58:00
8:58 PM,70.5,48.0,45,29.83,10.0,North,8.1,-,N/A,,Clear,10,2013-08-28 03:58:00
9:58 PM,69.8,48.0,46,29.83,10.0,North,4.6,-,N/A,,Clear,10,2013-08-28 04:58:00
10:58 PM,65.3,47.8,53,29.83,10.0,NE,5.8,-,N/A,,Clear,40,2013-08-28 05:58:00
11:58 PM,66.9,47.7,50,29.81,10.0,North,8.1,-,N/A,,Clear,10,2013-08-28 06:58:00